Regional Weather Roundup
Issued by NWS

Home | Current Version | Previous Version | Text Only | Print | Product List | Glossary Off
Versions: 1 2 3 4 5 6 7 8 9 10 11 12 13 14 15 16 17 18 19 20 21 22 23 24 25 26 27 28 29 30 31 32 33 34 35 36 37 38 39 40 41 42 43 44 45 46 47 48 49 50

000
ASUS43 KMPX 220310
RWRMN
WEATHER ROUNDUP FOR MINNESOTA
NATIONAL WEATHER SERVICE TWIN CITIES/CHANHASSEN MN
1000 PM CDT FRI JUL 21 2017


NOTE: "FAIR" INDICATES FEW OR NO CLOUDS BELOW 12,000 FEET WITH NO
SIGNIFICANT WEATHER AND/OR OBSTRUCTIONS TO VISIBILITY. N/A MEANS
CURRENT SKY AND/OR WEATHER CONDITIONS ARE NOT AVAILABLE.

MNZ060>063-068>070-220400-
   Twin Cities Metro

CITY           SKY/WX    TMP DP  RH WIND       PRES   REMARKS
TWIN CITIES    MOCLDY    78  67  68 SE12      29.85R
ST PAUL        CLEAR     75  69  81 SE8       29.86R
CRYSTAL        CLOUDY    78  66  66 E8        29.85R
BLAINE         MOCLDY    79  70  73 E5        29.86R
LAKEVILLE      MOCLDY    72  68  88 E5        29.86R
EDEN PRAIRIE   CLEAR     77  68  73 E7        29.85R
SOUTH ST PAUL  CLEAR     75  67  76 SE7       29.85R
LAKE ELMO      CLOUDY    73  68  83 SE6       29.88R
$$
MNZ001>005-007-008-013>017-022>024-027-028-220400-
   Northwest Minnesota

CITY           SKY/WX    TMP DP  RH WIND       PRES   REMARKS
BEMIDJI        MOCLDY    64  63  95 SE3       29.79F
HALLOCK        CLEAR     68  64  88 E6        29.76S
ROSEAU         CLOUDY    64  59  82 E3        29.79S
WARROAD        CLOUDY    70  64  83 E7        29.80S
THIEF RVR FALL MOCLDY    68  66  93 E6        29.79R
CROOKSTON      PTCLDY    72  70  94 CALM      29.77R
FOSSTON        PTCLDY    64  63  94 CALM      29.78R
DETROIT LAKES  CLOUDY    68  64  88 SE5G12    29.81S
MOORHEAD       CLOUDY    72  66  83 NE3       29.77R
PARK RAPIDS    CLOUDY    68  65  90 SE6       29.80F
MAHNOMEN       FAIR      68  64  85 S7        29.78R
$$
MNZ006-009>011-018-025>026-220400-
   North Central Minnesota

CITY           SKY/WX    TMP DP  RH WIND       PRES   REMARKS
BAUDETTE       MOCLDY    66  61  84 SE6       29.81R
FLAG ISLAND    CLOUDY    70  55  60 E6        29.80S
INTL FALLS     PTCLDY    61  59  93 CALM      29.82R
BIG FORK       PTCLDY    61  59  94 CALM      29.82R
LONGVILLE      CLOUDY    64  64 100 S6        29.81S
GRAND RAPIDS   CLOUDY    64  63  96 CALM      29.83R
CRANE LAKE     CLOUDY    61  61 100 CALM      29.84R FOG
ORR            CLOUDY    61  57  88 CALM      29.81R FOG
COOK           CLOUDY    61  57  88 CALM      29.82F
WALKER         FAIR      65  64  95 CALM      29.81S
$$
MNZ012-019>021-037-220400-
   Northeast Minnesota

CITY           SKY/WX    TMP DP  RH WIND       PRES   REMARKS
DULUTH         TSTM      62  62 100 SE17G28   29.82F FOG
ELY            CLOUDY    63  57  82 CALM      29.83R
HIBBING        CLOUDY    61  61 100 CALM      29.82R
EVELETH        CLOUDY    63  57  82 CALM      29.83R
DULUTH HARBOR  TSTM      63  63 100 SE22G29   29.74F
TWO HARBORS    LGT RAIN  64  59  82 SE8       29.77F
SILVER BAY     LGT RAIN  61  57  88 S10G20    29.79F
GRAND MARAIS     N/A     60  57  89 SE5       29.84F
G MARAIS ARPRT CLOUDY    63  46  55 NE7       29.89S
$$
MNZ029>031-032-039>041-046>048-054>057-064-220400-
   West Central Minnesota

CITY           SKY/WX    TMP DP  RH WIND       PRES   REMARKS
FERGUS FALLS   CLOUDY    70  66  88 SE12      29.77F
WHEATON        CLOUDY    72  66  83 E8        29.81R
MORRIS         CLOUDY    73  64  73 E16       29.82R
ALEXANDRIA     LGT RAIN  67  65  93 SE6       29.83F
ELBOW LAKE     CLOUDY    67  65  94 NE8       29.80S
WADENA         CLOUDY    64  64 100 E3        29.83R
GLENWOOD       HVY RAIN  68  64  88 N15G29    29.90R
APPLETON       CLEAR     79  72  78 SE6       29.81R
BENSON         MOCLDY    77  72  83 E6        29.85R
ORTONVILLE     CLOUDY    79  72  78 SE9       29.79R
MADISON        PTCLDY    79  73  83 SE5       29.82R
WILLMAR        MOCLDY    75  72  88 E6        29.87R
$$
MNZ033>034-036-042>043-049>051-058-059-220400-
   Central Minnesota

CITY           SKY/WX    TMP DP  RH WIND       PRES   REMARKS
ST CLOUD       CLOUDY    73  66  78 NE10G20   29.88R
SAUK CENTRE    LGT RAIN  67  65  95 NE5       29.89R
PAYNESVILLE    MOCLDY    77  71  82 E3        29.87R
AITKIN         CLOUDY    64  63  94 CALM      29.80S
PINE RIVER     CLOUDY    64  64 100 CALM      29.86R
BRAINERD       CLOUDY    65  64  97 S13       29.83F
STAPLES        CLOUDY    64  64 100 SE3       29.84R
LONG PRAIRIE   LGT RAIN  64  64 100 SE6       29.86S
LITTLE FALLS   TSTM      68  63  83 SE12      29.86F
LITCHFIELD     PTCLDY    75  72  88 E3        29.87R
BUFFALO        MOCLDY    74  69  83 CALM      29.88R
MAPLE LAKE     MOCLDY    73  72  94 CALM      29.87R
HUTCHINSON     CLEAR     73  70  93 E5        29.86R
$$
MNZ037-044-045-052-053-220400-
   East Central Minnesota

CITY           SKY/WX    TMP DP  RH WIND       PRES   REMARKS
PRINCETON      LGT RAIN  73  64  73 NE9G16    29.88R
MORA           LGT RAIN  64  63  94 CALM      29.90F
CAMBRIDGE      HVY RAIN  70  61  73 NE7G21    29.88R
RUSH CITY      LGT RAIN  66  63  91 E5        29.90R
MOOSE LAKE     LGT RAIN  63  61  94 SE3       29.83F
HINCKLEY       LGT RAIN  64  64 100 E6        29.88F
CLOQUET        CLOUDY    64  61  88 SE12G20   29.82F
MCGREGOR       CLOUDY    64  63  94 SE7       29.81F
$$
MNZ071>073-080-081-089-090-097-098-220400-
   Southwest Minnesota

CITY           SKY/WX    TMP DP  RH WIND       PRES   REMARKS
MONTEVIDEO     CLEAR     75  72  88 SE6       29.83R
GRANITE FALLS  CLEAR     77  72  85 E5        29.85R
CANBY          CLEAR     77  72  83 CALM      29.83R
MARSHALL       CLEAR     77  73  87 SE7       29.82R
REDWOOD FALLS  CLEAR     74  69  85 E7        29.82R
OLIVIA         CLEAR     73  70  88 E6        29.84R
PIPESTONE      CLEAR     75  72  88 CALM      29.82R
WINDOM         CLEAR     73  70  88 E5        29.82S
WORTHINGTON    MOCLDY    73  72  94 NE6       29.83R
JACKSON        CLEAR     72  70  94 CALM      29.83R
SLAYTON        CLEAR     73  70  89 NE3       29.83R
$$
MNZ065>067-074>077-082>085-091>093-220400-
   South Central Minnesota

CITY           SKY/WX    TMP DP  RH WIND       PRES   REMARKS
MANKATO        CLOUDY    75  69  81 E7        29.84S
NEW ULM        CLEAR     73  66  78 E7        29.83R
ST JAMES       PTCLDY    72  70  94 E3        29.83R
FAIRMONT       CLOUDY    73  71  93 E6        29.82R
GLENCOE        PTCLDY    74  72  91 CALM      29.84R
FARIBAULT      CLOUDY    73  66  78 NE9       29.87R
OWATONNA       MOCLDY    73  70  88 E9        29.87R
WASECA         CLOUDY    73  68  83 E6        29.86R
ALBERT LEA     CLOUDY    73  70  88 E7        29.84R
$$
MNZ078>079-086>088-094>096-220400-
   Southeast Minnesota

CITY           SKY/WX    TMP DP  RH WIND       PRES   REMARKS
ROCHESTER      CLOUDY    70  68  93 E7        29.88R
RED WING       CLOUDY    73  66  78 E5        29.86R
STANTON        PTCLDY    74  67  79 E7        29.85R
DODGE CENTER   MOCLDY    72  68  88 E7        29.88R
WINONA         CLOUDY    72  68  88 E6        29.87S
AUSTIN         CLOUDY    72  66  83 E6        29.85R
PRESTON        CLOUDY    68  66  92 NE7       29.87S
$$
ABBREVIATIONS USED IN REMARKS
   TC - TEMPERATURES IN CELSIUS
  WCI - WIND CHILL INDEX
   HX - HEAT INDEX
  VSB - VISIBILITY
$$



USA.gov is the U.S. government's official web portal to all federal, state and local government web resources and services.